Nadi, Fiji

2:24 AM +12 on May 01, 2017 (GMT +1200)
Nadi International

Weather History for NFFN - February, 2013

Change the Weather History Date:

Tuesday, February 26, 2013

  Actual Average Record
Temperature  
Mean Temperature 79 °F -  
Max Temperature 87 °F 86 °F 91 °F (1998)
Min Temperature 71 °F 73 °F 71 °F (1998)
Cooling Degree Days 14    
Growing Degree Days 29 (Base 50)    
Moisture  
Dew Point 72 °F    
Average Humidity 79    
Maximum Humidity 100    
Minimum Humidity 25    
Precipitation  
Precipitation 0.00 in 0.42 in - ()
Sea Level Pressure  
Sea Level Pressure 29.70 in    
Wind  
Wind Speed 4 mph ()    
Max Wind Speed 15 mph    
Max Gust Speed -    
Visibility 6.8 miles    
Events      
Averages and records for this station are not official NWS values.
T = Trace of Precipitation, MM = Missing Value Source: Averaged Metar Reports

Daily Weather History Graph

Daily Weather History Graph

Search for Another Location

Airport or City:

Trip Planner

Search our weather history database for the weather conditions in past years. The results will help you decide how hot, cold, wet, or windy it might be!

Date:

Astronomy

Feb. 26, 2013 Rise Set
Actual Time 6:08 AM +12 6:37 PM +12
Civil Twilight 5:46 AM +12 6:59 PM +12
Nautical Twilight 5:20 AM +12 7:25 PM +12
Astronomical Twilight 4:54 AM +12 7:51 PM +12
Moon 6:39 PM +12 (2/26) 6:04 AM +12 (2/26)
Length of Visible Light 13h 13m
Length of Day
12h 29m
Full, 100% of the Moon is Illuminated
Feb 26
Full
Mar 5
Last Quarter
Mar 12
New
Mar 20
First Quarter
Mar 27
Full

Hourly Weather History & Observations

Time (+12) Temp. Heat Index Dew Point Humidity Pressure Visibility Wind Dir Wind Speed Gust Speed Precip Events Conditions
12:00 AM 76 °F - 73 °F 87% 29.74 in 12 mi Calm Calm - -   Partly Cloudy
12:00 AM 75.2 °F - 73.4 °F 94% 29.71 in 6.2 mi Calm Calm - N/A   Scattered Clouds
1:00 AM 75.2 °F - 73.4 °F 94% 29.68 in 6.2 mi East 4.6 mph - N/A   Partly Cloudy
2:00 AM 73.4 °F - 73.4 °F 100% 29.68 in 6.2 mi Calm Calm - N/A   Scattered Clouds
3:00 AM 73 °F - 72 °F 95% 29.68 in 12 mi Calm Calm - -   Partly Cloudy
3:00 AM 73.4 °F - 71.6 °F 94% 29.68 in 6.2 mi Calm Calm - N/A   Scattered Clouds
4:00 AM 73.4 °F - 71.6 °F 94% 29.68 in 6.2 mi Calm Calm - N/A   Scattered Clouds
5:00 AM 71.6 °F - 71.6 °F 100% 29.68 in 6.2 mi East 5.8 mph - N/A   Scattered Clouds
6:00 AM 72 °F - 71 °F 94% 29.71 in 31 mi ESE 4.6 mph - -   Partly Cloudy
6:00 AM 71.6 °F - 69.8 °F 94% 29.71 in 6.2 mi ESE 4.6 mph - N/A   Scattered Clouds
7:00 AM 73.4 °F - 71.6 °F 94% 29.71 in 6.2 mi ESE 4.6 mph - N/A   Scattered Clouds
8:00 AM 77.0 °F - 73.4 °F 89% 29.71 in 6.2 mi NE 5.8 mph - N/A   Scattered Clouds
9:00 AM 81 °F - 74 °F 73% 29.73 in 31 mi ESE 5.8 mph - -   Partly Cloudy
9:00 AM 80.6 °F 85.4 °F 73.4 °F 79% 29.71 in 6.2 mi ESE 5.8 mph - N/A   Scattered Clouds
10:00 AM 82.4 °F 87.2 °F 71.6 °F 70% 29.71 in 6.2 mi SSW 5.8 mph - N/A   Scattered Clouds
11:00 AM - - 71.6 °F N/A% 29.71 in 6.2 mi SSW 4.6 mph - N/A   Mostly Cloudy
12:00 PM 87 °F - 57 °F 25% 29.73 in 31 mi Calm Calm - -   Partly Cloudy
12:00 PM 86.0 °F 84.9 °F 57.2 °F 37% 29.71 in 6.2 mi Calm Calm - N/A   Mostly Cloudy
1:00 PM 87.8 °F 92.6 °F 69.8 °F 55% 29.71 in 6.2 mi Calm Calm - N/A   Mostly Cloudy
2:00 PM 86.0 °F 95.1 °F 75.2 °F 70% 29.65 in 6.2 mi West 13.8 mph - N/A   Mostly Cloudy
3:00 PM 86 °F - 76 °F 64% 29.65 in 31 mi West 15.0 mph - -   Partly Cloudy
3:00 PM 86.0 °F 95.1 °F 75.2 °F 70% 29.65 in 6.2 mi West 15.0 mph - N/A   Mostly Cloudy
4:00 PM 84.2 °F 90.9 °F 73.4 °F 70% 29.62 in 6.2 mi West 13.8 mph - N/A   Mostly Cloudy
5:00 PM 84.2 °F 89.6 °F 71.6 °F 66% 29.65 in 6.2 mi West 12.7 mph - N/A   Mostly Cloudy
6:00 PM 82 °F - 72 °F 63% 29.68 in 31 mi WNW 10.4 mph - -   Partly Cloudy
6:00 PM 82.4 °F 87.2 °F 71.6 °F 70% 29.68 in 6.2 mi WNW 10.4 mph - N/A   Mostly Cloudy
7:00 PM 80.6 °F 85.4 °F 73.4 °F 79% 29.68 in 6.2 mi WNW 5.8 mph - N/A   Mostly Cloudy
8:00 PM 78.8 °F - 73.4 °F 83% 29.71 in 6.2 mi Calm Calm - N/A   Mostly Cloudy
9:00 PM 77 °F - 73 °F 85% 29.73 in 12 mi ESE 5.8 mph - -   Partly Cloudy
9:00 PM 77.0 °F - 73.4 °F 89% 29.71 in 6.2 mi ESE 5.8 mph - N/A   Mostly Cloudy
10:00 PM 77.0 °F - 71.6 °F 83% 29.74 in 6.2 mi ESE 5.8 mph - N/A   Scattered Clouds
11:00 PM 75.2 °F - 71.6 °F 89% 29.74 in 6.2 mi ESE 5.8 mph - N/A   Scattered Clouds